TimeEST,TemperatureF,Dew PointF,Humidity,Sea Level PressureIn,VisibilityMPH,Wind Direction,Wind SpeedMPH,Gust SpeedMPH,PrecipitationIn,Events,Conditions,WindDirDegrees,DateUTC
12:15 AM,37.4,26.6,65,30.06,10.0,West,20.7,32.2,N/A,,Overcast,280,2011-12-16 05:15:00
12:35 AM,37.4,26.6,65,30.07,10.0,West,18.4,26.5,N/A,,Overcast,280,2011-12-16 05:35:00
12:55 AM,37.4,26.6,65,30.09,10.0,WNW,16.1,24.2,N/A,,Overcast,290,2011-12-16 05:55:00
1:15 AM,37.4,24.8,60,30.10,10.0,WNW,13.8,29.9,N/A,,Overcast,300,2011-12-16 06:15:00
1:25 AM,35.6,24.8,65,30.11,10.0,WNW,12.7,19.6,N/A,,Overcast,290,2011-12-16 06:25:00
1:51 AM,35.6,21.2,56,30.13,10.0,WNW,19.6,24.2,N/A,,Overcast,300,2011-12-16 06:51:00
2:11 AM,35.6,21.2,56,30.14,10.0,WNW,16.1,23.0,N/A,,Overcast,290,2011-12-16 07:11:00
2:31 AM,35.6,19.4,52,30.15,10.0,WNW,20.7,24.2,N/A,,Mostly Cloudy,300,2011-12-16 07:31:00
2:52 AM,35.6,21.2,56,30.17,10.0,West,15.0,-,N/A,,Mostly Cloudy,280,2011-12-16 07:52:00
3:12 AM,35.6,21.2,56,30.18,10.0,West,15.0,19.6,N/A,,Overcast,280,2011-12-16 08:12:00
3:32 AM,35.6,21.2,56,30.18,10.0,WNW,12.7,18.4,N/A,,Overcast,300,2011-12-16 08:32:00
4:12 AM,33.8,21.2,60,30.19,10.0,WNW,15.0,18.4,N/A,,Overcast,300,2011-12-16 09:12:00
4:32 AM,33.8,21.2,60,30.20,10.0,WNW,9.2,-,N/A,,Overcast,300,2011-12-16 09:32:00
5:13 AM,33.8,21.2,60,30.20,10.0,NW,9.2,16.1,N/A,,Overcast,310,2011-12-16 10:13:00
5:33 AM,33.8,19.4,56,30.22,10.0,WNW,16.1,-,N/A,,Scattered Clouds,300,2011-12-16 10:33:00
5:53 AM,33.8,21.2,60,30.22,10.0,WNW,9.2,18.4,N/A,,Clear,300,2011-12-16 10:53:00
6:13 AM,33.8,21.2,60,30.21,10.0,NW,11.5,17.3,N/A,,Clear,310,2011-12-16 11:13:00
6:33 AM,33.8,21.2,60,30.22,10.0,WNW,11.5,-,N/A,,Clear,300,2011-12-16 11:33:00
7:14 AM,32.0,21.2,64,30.24,10.0,NW,5.8,-,N/A,,Clear,310,2011-12-16 12:14:00
7:34 AM,32.0,21.2,64,30.24,10.0,NW,5.8,-,N/A,,Clear,320,2011-12-16 12:34:00
7:54 AM,32.0,21.2,64,30.23,10.0,NW,4.6,-,N/A,,Clear,310,2011-12-16 12:54:00
8:14 AM,30.2,23.0,75,30.24,10.0,WNW,4.6,-,N/A,,Clear,290,2011-12-16 13:14:00
8:34 AM,32.0,23.0,69,30.25,10.0,WNW,5.8,-,N/A,,Clear,300,2011-12-16 13:34:00
8:54 AM,32.0,24.8,75,30.26,10.0,WSW,3.5,-,N/A,,Clear,250,2011-12-16 13:54:00
9:15 AM,33.8,24.8,70,30.27,10.0,West,3.5,-,N/A,,Scattered Clouds,270,2011-12-16 14:15:00
9:55 AM,33.8,23.0,65,30.27,10.0,West,5.8,-,N/A,,Overcast,280,2011-12-16 14:55:00
10:15 AM,33.8,23.0,65,30.28,10.0,West,6.9,-,N/A,,Overcast,280,2011-12-16 15:15:00
10:30 AM,33.8,24.8,70,30.29,10.0,West,6.9,-,N/A,,Overcast,280,2011-12-16 15:30:00
10:51 AM,33.8,23.0,65,30.29,10.0,WNW,8.1,-,N/A,,Overcast,290,2011-12-16 15:51:00
11:11 AM,33.8,23.0,65,30.30,10.0,WSW,4.6,-,N/A,,Overcast,250,2011-12-16 16:11:00
11:31 AM,33.8,23.0,65,30.30,10.0,WSW,6.9,-,N/A,,Overcast,250,2011-12-16 16:31:00
11:51 AM,33.8,24.8,70,30.31,10.0,WSW,8.1,-,N/A,,Overcast,250,2011-12-16 16:51:00
12:11 PM,33.8,24.8,70,30.29,10.0,WSW,5.8,-,N/A,,Overcast,250,2011-12-16 17:11:00
12:32 PM,33.8,24.8,70,30.29,10.0,West,6.9,-,N/A,,Overcast,260,2011-12-16 17:32:00
12:52 PM,33.8,24.8,70,30.28,10.0,WSW,8.1,-,N/A,,Overcast,250,2011-12-16 17:52:00
1:12 PM,35.6,24.8,65,30.27,10.0,West,10.4,-,N/A,,Overcast,260,2011-12-16 18:12:00
1:32 PM,35.6,24.8,65,30.26,10.0,West,10.4,-,N/A,,Overcast,260,2011-12-16 18:32:00
1:52 PM,35.6,24.8,65,30.25,10.0,West,8.1,-,N/A,,Overcast,260,2011-12-16 18:52:00
2:12 PM,35.6,24.8,65,30.25,10.0,WNW,9.2,-,N/A,,Overcast,290,2011-12-16 19:12:00
3:13 PM,35.6,26.6,70,30.24,10.0,WNW,9.2,-,N/A,,Overcast,290,2011-12-16 20:13:00
3:33 PM,33.8,24.8,70,30.25,10.0,WNW,10.4,-,N/A,,Overcast,290,2011-12-16 20:33:00
3:53 PM,33.8,24.8,70,30.25,10.0,West,8.1,16.1,N/A,,Overcast,280,2011-12-16 20:53:00
4:34 PM,33.8,24.8,70,30.24,10.0,WNW,10.4,-,N/A,,Overcast,290,2011-12-16 21:34:00
4:54 PM,33.8,24.8,70,30.24,10.0,WNW,9.2,-,N/A,,Overcast,290,2011-12-16 21:54:00
5:14 PM,33.8,24.8,70,30.24,10.0,West,6.9,-,N/A,,Overcast,280,2011-12-16 22:14:00
5:34 PM,33.8,24.8,70,30.25,10.0,WNW,8.1,-,N/A,,Overcast,300,2011-12-16 22:34:00
5:54 PM,33.8,23.0,65,30.25,10.0,WNW,6.9,-,N/A,,Overcast,300,2011-12-16 22:54:00
6:15 PM,33.8,23.0,65,30.26,10.0,NNW,10.4,-,N/A,,Overcast,330,2011-12-16 23:15:00
6:35 PM,33.8,23.0,65,30.26,10.0,NW,8.1,-,N/A,,Overcast,310,2011-12-16 23:35:00
7:10 PM,33.8,23.0,65,30.27,10.0,NW,5.8,-,N/A,,Overcast,310,2011-12-17 00:10:00
7:30 PM,33.8,24.8,70,30.26,10.0,NW,6.9,-,N/A,,Overcast,320,2011-12-17 00:30:00
8:11 PM,33.8,21.2,60,30.26,10.0,NW,10.4,-,N/A,,Overcast,320,2011-12-17 01:11:00
8:31 PM,33.8,21.2,60,30.26,10.0,NW,5.8,-,N/A,,Overcast,320,2011-12-17 01:31:00
8:51 PM,33.8,21.2,60,30.27,10.0,NW,8.1,-,N/A,,Overcast,320,2011-12-17 01:51:00
9:12 PM,33.8,21.2,60,30.27,10.0,NW,11.5,17.3,N/A,,Overcast,320,2011-12-17 02:12:00
9:32 PM,32.0,21.2,64,30.28,10.0,NW,8.1,-,N/A,,Overcast,310,2011-12-17 02:32:00
9:52 PM,32.0,21.2,64,30.27,10.0,NW,9.2,-,N/A,,Overcast,320,2011-12-17 02:52:00
10:12 PM,32.0,21.2,64,30.28,10.0,WNW,10.4,-,N/A,,Overcast,300,2011-12-17 03:12:00
10:32 PM,32.0,21.2,64,30.28,10.0,WNW,10.4,-,N/A,,Overcast,300,2011-12-17 03:32:00
10:52 PM,32.0,21.2,64,30.28,10.0,WNW,8.1,-,N/A,,Overcast,290,2011-12-17 03:52:00
11:12 PM,32.0,21.2,64,30.28,10.0,WNW,9.2,-,N/A,,Overcast,300,2011-12-17 04:12:00
11:33 PM,32.0,21.2,64,30.28,10.0,WNW,8.1,-,N/A,,Overcast,300,2011-12-17 04:33:00
11:53 PM,32.0,21.2,64,30.28,10.0,NNW,5.8,-,N/A,,Overcast,330,2011-12-17 04:53:00